• In Lithuania
  • List of Countries
  • For 7 days
  • Water Temperature
  • Satellite Maps
  • Weather Map
  • Weather Widgets
  • user-avatar
    Login

    Hourly Weather Kambulat

    Today, 23 October, Tuesday

    Time Temperature Precipitation Wind Pressure Humidity
    00:00 +14°C° 0 mm 1 mps 746 mmHg 82%
    01:00 +15°C° 0 mm 1 mps 746 mmHg 85%
    02:00 +14°C° 0 mm 2 mps 746 mmHg 88%
    03:00 +13°C° 0 mm 1 mps 745 mmHg 91%
    04:00 +13°C° 0 mm 2 mps 746 mmHg 91%
    05:00 +13°C° 0 mm 2 mps 746 mmHg 92%
    06:00 +13°C° 0 mm 2 mps 746 mmHg 93%
    07:00 +13°C° 0 mm 3 mps 746 mmHg 88%
    08:00 +14°C° 0 mm 3 mps 746 mmHg 83%
    09:00 +17°C° 0 mm 4 mps 746 mmHg 77%
    10:00 +17°C° 0 mm 5 mps 746 mmHg 70%
    11:00 +19°C° 0 mm 5 mps 745 mmHg 63%
    12:00 +20°C° 0 mm 5 mps 745 mmHg 57%
    13:00 +20°C° 0 mm 5 mps 745 mmHg 55%
    14:00 +20°C° 0 mm 5 mps 744 mmHg 53%
    15:00 +19°C° 0 mm 5 mps 744 mmHg 51%
    16:00 +18°C° 0 mm 4 mps 744 mmHg 55%
    17:00 +17°C° 0 mm 3 mps 744 mmHg 58%
    18:00 +16°C° 0 mm 2 mps 744 mmHg 61%
    19:00 +15°C° 0 mm 2 mps 744 mmHg 63%
    20:00 +15°C° 0 mm 2 mps 744 mmHg 65%
    21:00 +15°C° 0 mm 2 mps 743 mmHg 67%
    22:00 +14°C° 0 mm 2 mps 743 mmHg 68%
    23:00 +14°C° 0 mm 1 mps 743 mmHg 69%

    Tomorrow, 24 October, Wednesday

    Time Temperature Precipitation Wind Pressure Humidity
    00:00 +14°C° 0 mm 1 mps 742 mmHg 70%
    01:00 +14°C° 0.1 mm 1 mps 742 mmHg 72%
    02:00 +14°C° 0.1 mm 2 mps 742 mmHg 74%
    03:00 +14°C° 0.1 mm 2 mps 741 mmHg 76%
    04:00 +14°C° 0.5 mm 2 mps 741 mmHg 79%
    05:00 +14°C° 0.5 mm 2 mps 741 mmHg 82%
    06:00 +14°C° 0.5 mm 2 mps 740 mmHg 84%
    07:00 +14°C° 0.2 mm 3 mps 740 mmHg 82%
    08:00 +15°C° 0.2 mm 4 mps 739 mmHg 80%
    09:00 +15°C° 0.2 mm 5 mps 739 mmHg 78%
    10:00 +16°C° 0.2 mm 5 mps 738 mmHg 76%
    11:00 +16°C° 0.2 mm 6 mps 737 mmHg 74%
    12:00 +17°C° 0.2 mm 6 mps 736 mmHg 72%
    13:00 +17°C° 0.1 mm 6 mps 735 mmHg 69%
    14:00 +18°C° 0.1 mm 7 mps 734 mmHg 66%
    15:00 +18°C° 0.1 mm 8 mps 733 mmHg 63%
    16:00 +19°C° 0.1 mm 6 mps 733 mmHg 66%
    17:00 +17°C° 0.1 mm 5 mps 732 mmHg 69%
    18:00 +18°C° 0.1 mm 4 mps 732 mmHg 72%
    19:00 +17°C° 0.2 mm 3 mps 731 mmHg 76%
    20:00 +16°C° 0.2 mm 2 mps 731 mmHg 80%
    21:00 +16°C° 0.2 mm 1 mps 731 mmHg 84%
    22:00 +16°C° 0.5 mm 2 mps 731 mmHg 85%
    23:00 +16°C° 0.5 mm 2 mps 731 mmHg 86%

    Day after tomorrow, 25 October, Thursday

    Time Temperature Precipitation Wind Pressure Humidity
    00:00 +16°C° 0.5 mm 2 mps 731 mmHg 87%
    01:00 +15°C° 0.6 mm 2 mps 730 mmHg 88%
    02:00 +15°C° 0.6 mm 1 mps 730 mmHg 89%
    03:00 +15°C° 0.6 mm 1 mps 729 mmHg 90%
    04:00 +15°C° 0.3 mm 2 mps 729 mmHg 89%
    05:00 +15°C° 0.3 mm 2 mps 729 mmHg 88%
    06:00 +15°C° 0.3 mm 2 mps 729 mmHg 87%
    07:00 +14°C° 1.1 mm 3 mps 729 mmHg 85%
    08:00 +13°C° 1.1 mm 4 mps 729 mmHg 84%
    09:00 +13°C° 1.1 mm 4 mps 729 mmHg 83%
    10:00 +13°C° 0.8 mm 5 mps 730 mmHg 82%
    11:00 +13°C° 0.8 mm 5 mps 730 mmHg 82%
    12:00 +13°C° 0.8 mm 6 mps 730 mmHg 82%
    13:00 +11°C° 0.6 mm 6 mps 731 mmHg 79%
    14:00 +11°C° 0.6 mm 7 mps 732 mmHg 76%
    15:00 +10°C° 0.6 mm 7 mps 732 mmHg 73%
    16:00 +10°C° 0.3 mm 6 mps 733 mmHg 72%
    17:00 +10°C° 0.3 mm 6 mps 734 mmHg 71%
    18:00 +9°C° 0.3 mm 5 mps 735 mmHg 70%
    19:00 +9°C° 0 mm 5 mps 735 mmHg 70%
    20:00 +9°C° 0 mm 5 mps 736 mmHg 70%
    21:00 +8°C° 0 mm 4 mps 736 mmHg 70%
    22:00 +8°C° 0 mm 4 mps 737 mmHg 69%
    23:00 +8°C° 0 mm 4 mps 737 mmHg 69%

    26 October, Friday

    Time Temperature Precipitation Wind Pressure Humidity
    00:00 +9°C° 0 mm 3 mps 737 mmHg 69%
    01:00 +9°C° 0 mm 3 mps 737 mmHg 71%
    02:00 +7°C° 0 mm 4 mps 738 mmHg 72%
    03:00 +7°C° 0 mm 4 mps 738 mmHg 74%
    04:00 +7°C° 0 mm 4 mps 738 mmHg 76%
    05:00 +8°C° 0 mm 3 mps 739 mmHg 77%
    06:00 +7°C° 0 mm 3 mps 739 mmHg 79%
    07:00 +7°C° 0 mm 4 mps 739 mmHg 74%
    08:00 +7°C° 0 mm 5 mps 740 mmHg 70%
    09:00 +8°C° 0 mm 6 mps 740 mmHg 65%
    10:00 +9°C° 0 mm 6 mps 740 mmHg 58%
    11:00 +10°C° 0 mm 6 mps 740 mmHg 51%
    12:00 +11°C° 0 mm 6 mps 740 mmHg 43%
    13:00 +13°C° 0 mm 6 mps 740 mmHg 43%
    14:00 +13°C° 0 mm 5 mps 739 mmHg 42%
    15:00 +14°C° 0 mm 5 mps 739 mmHg 42%
    16:00 +13°C° 0.4 mm 5 mps 739 mmHg 50%
    17:00 +10°C° 0.4 mm 6 mps 739 mmHg 58%
    18:00 +9°C° 0.4 mm 6 mps 739 mmHg 67%
    19:00 +9°C° 0.9 mm 6 mps 740 mmHg 69%
    20:00 +9°C° 0.9 mm 6 mps 741 mmHg 72%
    21:00 +8°C° 0.9 mm 6 mps 742 mmHg 74%
    22:00 +8°C° 0 mm 7 mps 743 mmHg 74%
    23:00 +8°C° 0 mm 7 mps 744 mmHg 73%

    27 October, Saturday

    Time Temperature Precipitation Wind Pressure Humidity
    00:00 +6°C° 0 mm 7 mps 744 mmHg 72%
    01:00 +6°C° 0 mm 7 mps 745 mmHg 72%
    02:00 +6°C° 0 mm 7 mps 745 mmHg 73%
    03:00 +6°C° 0 mm 7 mps 746 mmHg 73%
    04:00 +5°C° 0 mm 6 mps 747 mmHg 75%
    05:00 +5°C° 0 mm 6 mps 747 mmHg 77%
    06:00 +6°C° 0 mm 5 mps 748 mmHg 79%
    07:00 +7°C° 0 mm 6 mps 749 mmHg 74%
    08:00 +8°C° 0 mm 6 mps 749 mmHg 68%
    09:00 +9°C° 0 mm 7 mps 750 mmHg 63%
    10:00 +10°C° 0 mm 6 mps 750 mmHg 58%
    11:00 +11°C° 0 mm 6 mps 750 mmHg 54%
    12:00 +13°C° 0 mm 6 mps 750 mmHg 49%
    13:00 +14°C° 0 mm 5 mps 749 mmHg 49%
    14:00 +14°C° 0 mm 5 mps 749 mmHg 48%
    15:00 +15°C° 0 mm 4 mps 749 mmHg 47%
    16:00 +14°C° 0 mm 4 mps 749 mmHg 52%
    17:00 +13°C° 0 mm 3 mps 749 mmHg 56%
    18:00 +13°C° 0 mm 2 mps 749 mmHg 60%
    19:00 +12°C° 0 mm 3 mps 749 mmHg 62%
    20:00 +11°C° 0 mm 3 mps 749 mmHg 64%
    21:00 +11°C° 0 mm 4 mps 749 mmHg 66%
    22:00 +11°C° 0 mm 4 mps 749 mmHg 67%
    23:00 +10°C° 0 mm 4 mps 750 mmHg 69%

    28 October, Sunday

    Time Temperature Precipitation Wind Pressure Humidity
    00:00 +10°C° 0 mm 4 mps 750 mmHg 70%
    01:00 +10°C° 0 mm 4 mps 750 mmHg 70%
    02:00 +10°C° 0 mm 4 mps 750 mmHg 71%
    03:00 +10°C° 0 mm 4 mps 750 mmHg 71%
    04:00 +10°C° 0 mm 4 mps 750 mmHg 69%
    05:00 +10°C° 0 mm 4 mps 750 mmHg 68%
    06:00 +10°C° 0 mm 4 mps 750 mmHg 66%
    07:00 +11°C° 0 mm 4 mps 751 mmHg 60%
    08:00 +12°C° 0 mm 4 mps 751 mmHg 54%
    09:00 +14°C° 0 mm 4 mps 751 mmHg 49%
    10:00 +17°C° 0 mm 3 mps 751 mmHg 43%
    11:00 +19°C° 0 mm 3 mps 751 mmHg 37%
    12:00 +21°C° 0 mm 3 mps 751 mmHg 31%
    13:00 +21°C° 0 mm 2 mps 751 mmHg 30%
    14:00 +21°C° 0 mm 2 mps 751 mmHg 29%
    15:00 +23°C° 0 mm 2 mps 751 mmHg 28%
    16:00 +21°C° 0 mm 1 mps 751 mmHg 32%
    17:00 +19°C° 0 mm 1 mps 752 mmHg 35%
    18:00 +18°C° 0 mm 1 mps 752 mmHg 39%
    19:00 +16°C° 0 mm 1 mps 752 mmHg 41%
    20:00 +16°C° 0 mm 1 mps 752 mmHg 42%
    21:00 +15°C° 0 mm 1 mps 752 mmHg 44%
    22:00 +15°C° 0 mm 1 mps 752 mmHg 45%
    23:00 +14°C° 0 mm 1 mps 752 mmHg 46%

    29 October, Monday

    Time Temperature Precipitation Wind Pressure Humidity
    00:00 +14°C° 0 mm 2 mps 752 mmHg 47%
    01:00 +14°C° 0 mm 2 mps 752 mmHg 48%
    02:00 +14°C° 0 mm 2 mps 752 mmHg 49%
    03:00 +13°C° 0 mm 2 mps 752 mmHg 50%
    04:00 +13°C° 0 mm 2 mps 752 mmHg 51%
    05:00 +13°C° 0 mm 2 mps 752 mmHg 51%
    06:00 +13°C° 0 mm 2 mps 752 mmHg 52%
    07:00 +14°C° 0 mm 2 mps 752 mmHg 49%
    08:00 +15°C° 0 mm 2 mps 752 mmHg 47%
    09:00 +16°C° 0 mm 3 mps 752 mmHg 44%
    10:00 +18°C° 0 mm 3 mps 752 mmHg 40%
    11:00 +19°C° 0 mm 4 mps 752 mmHg 36%
    12:00 +21°C° 0 mm 4 mps 752 mmHg 31%
    13:00 +21°C° 0 mm 4 mps 751 mmHg 31%
    14:00 +21°C° 0 mm 4 mps 751 mmHg 31%
    15:00 +22°C° 0 mm 4 mps 751 mmHg 31%
    16:00 +20°C° 0 mm 4 mps 751 mmHg 36%
    17:00 +18°C° 0 mm 4 mps 751 mmHg 41%
    18:00 +16°C° 0 mm 3 mps 750 mmHg 47%
    19:00 +16°C° 0 mm 3 mps 750 mmHg 51%
    20:00 +14°C° 0 mm 3 mps 750 mmHg 56%
    21:00 +14°C° 0 mm 3 mps 750 mmHg 60%
    22:00 +13°C° 0 mm 3 mps 750 mmHg 66%
    23:00 +13°C° 0 mm 3 mps 750 mmHg 72%
    Show more